This is the latest recevied weather packets stored in our database for station/object OK0BPL-5. If no packets are shown the sender has not sent any weather packets the latest 1 day(s).
| Time | Temp. | Humidity | Pressure | Rain* | Wind** | Luminosity | Snow |
|---|---|---|---|---|---|---|---|
| 1788512197 | 21.11° C | 69% | 1012.9 hPa | 0 mm | 3.58 m/s, 222° | 127 W/m² | - |
| 1788512197 | 21.11° C | 69% | 1012.9 hPa | 0 mm | 3.58 m/s, 222° | 127 W/m² | - |
| 1788511299 | 20.56° C | 71% | 1013.3 hPa | 0 mm | 2.68 m/s, 222° | 108 W/m² | - |
| 1788511298 | 20.56° C | 71% | 1013.3 hPa | 0 mm | 2.68 m/s, 222° | 108 W/m² | - |
| 1788510397 | 20° C | 72% | 1013.6 hPa | 0 mm | 3.13 m/s, 222° | 66 W/m² | - |
| 1788509498 | 19.44° C | 72% | 1013.8 hPa | 0 mm | 3.13 m/s, 222° | 84 W/m² | - |
| 1788509497 | 19.44° C | 72% | 1013.8 hPa | 0 mm | 3.13 m/s, 222° | 84 W/m² | - |
| 1788509497 | 19.44° C | 72% | 1013.8 hPa | 0 mm | 3.13 m/s, 222° | 84 W/m² | - |
| 1788508598 | 19.44° C | 73% | 1013.8 hPa | 0 mm | 4.47 m/s, 222° | 66 W/m² | - |
| 1788508597 | 19.44° C | 73% | 1013.8 hPa | 0 mm | 4.47 m/s, 222° | 66 W/m² | - |
| 1788508597 | 19.44° C | 73% | 1013.8 hPa | 0 mm | 4.47 m/s, 222° | 66 W/m² | - |
| 1788507698 | 19.44° C | 72% | 1013.7 hPa | 0 mm | 4.47 m/s, 180° | 66 W/m² | - |
| 1788507697 | 19.44° C | 72% | 1013.7 hPa | 0 mm | 4.47 m/s, 180° | 66 W/m² | - |
| 1788507697 | 19.44° C | 72% | 1013.7 hPa | 0 mm | 4.47 m/s, 180° | 66 W/m² | - |
| 1788506798 | 18.89° C | 71% | 1013.9 hPa | 0 mm | 2.68 m/s, 222° | 67 W/m² | - |
| 1788506797 | 18.89° C | 71% | 1013.9 hPa | 0 mm | 2.68 m/s, 222° | 67 W/m² | - |
| 1788506797 | 18.89° C | 71% | 1013.9 hPa | 0 mm | 2.68 m/s, 222° | 67 W/m² | - |
| 1788505898 | 18.89° C | - | - | 0 mm | 2.24 m/s, 180° | - | - |
| 1788505898 | 18.89° C | 72% | 1013.9 hPa | 0 mm | 2.24 m/s, 180° | 61 W/m² | - |
| 1788505897 | 18.89° C | 72% | 1013.9 hPa | 0 mm | 2.24 m/s, 180° | 61 W/m² | - |
| 1788505897 | 18.89° C | 72% | 1013.9 hPa | 0 mm | 2.24 m/s, 180° | 61 W/m² | - |
| 1788504998 | 18.33° C | 72% | 1014 hPa | 0 mm | 2.68 m/s, 180° | 52 W/m² | - |
| 1788504997 | 18.33° C | 72% | 1014 hPa | 0 mm | 2.68 m/s, 180° | 52 W/m² | - |
| 1788504997 | 18.33° C | 72% | 1014 hPa | 0 mm | 2.68 m/s, 180° | 52 W/m² | - |
| 1788504098 | 18.33° C | 72% | 1014 hPa | 0 mm | 1.79 m/s, 222° | 37 W/m² | - |
* Rain latest hour (hover to see other rain measurements)
** Current wind speed in m/s (hover to see current wind gust speed)